Погода Кемь-Порт

Погода Кемь-Порт : погода сейчас, прогноз погоды и архив. Всё, что Вы хотите узнать о погоде Кемь-Порт!

Поиск расширенной информации на нашем сайте:

Другие новости

Новости СМИ2

Главная страница сайта

Новости сайта

03.07.2017

Напоминаем, что на нашем специализированном сайте Метеоцентр.Азия вы можете получить высокодетализированные автоматические прогнозы погоды по пунктам России, СНГ и мира в авиационном формате (включающие направление и скорость ветра, видимость, явления погоды, количество и форму облачности, нижнюю и верхнюю границу облачности).


Погода Кемь-Порт - сегодня

Время (UTC), дата Ветер
(°,м/с) 
Видим.   Явления Облачность Т
(°С)
Тd
(°С)
f(%) Тe
(°С)
Pmin
(гПа)
dP
(гПа)
Po
(мм)
O2
(г/м3)
Тmin Tmax R s Состояние
почвы
18 19.02.18 330 (СЗ) 10 км    ясно 
-10 -11.9 86 -13  1025.4  0.1  768  323    -7  0.3     
21 19.02.18 310 (СЗ) 4000 м  слаб. ливневой снег  10/10 450 м кучево-дожд. 
[Cb cap]
-8.5 -9.8 90 -11  1025.2  0.1  768  321           
00 20.02.18 340 (С) 4000 м  слаб. ливневой снег  10/10 480 м кучево-дожд. 
[Cb cap]
-7.6 -8.8 91 -9  1025.7  0.5  769  320           
03 20.02.18 360 (С) 4000 м  слаб. ливневой снег  10/10 270 м кучево-дожд. 
[Cb cap]
-7.7 -9.3 88 -10  1026.1  0.3  769  320  -10.1    0.5     
06 20.02.18 020 (С) 4000 м  слаб. ливневой снег  10/10 420 м кучево-дожд. 
[Cb cap]
-8.3 -9.4 92 -11  1026.4  0.3  769  321  -10    0.9  38  равномерный
сухой снег
100% 
09 20.02.18 310 (СЗ) 4000 м  слаб. ливневой снег  10/10 300 м кучево-дожд. 
[Cb cap]
-7.5 -9.9 83 -9  1026.5  0.2  769  320           
12 20.02.18 350 (С) 4000 м  слаб. ливневой снег  10/10 300 м кучево-дожд. 
[Cb cap]
-7.3 -10.8 76 -9  1026.5  769  320           
15 20.02.18 300 (СЗ) 4000 м  слаб. ливневой снег  9/9 300 м кучево-дожд. 
[Cb cap]
-8.8 -10.4 88 -10  1026.1  -0.5  769  321         
18 20.02.18 280 (З) 4000 м  слаб. ливневой снег  9/9 570 м кучево-дожд. 
[Cb cap]
-9.8 -11.3 89 -13  1025.2  -0.9  768  322    -7.3     
21 20.02.18 270 (З) 4000 м  слаб. снег{ливн. осадки}  10/10 400 м 
[Ns]
-9.8 -11.3 89 -12  1025.3  -1  767  322           
00 21.02.18 270 (З) 4000 м  слаб. снег{ливн. осадки}  10/10 420 м 
[Ns]
-10.8 -12.1 90 -13  1023.7  -0.6  767  323           
03 21.02.18 250 (З) 20000 м  {снег}  ясно 
-14.9 -16.4 88 -17  1022.9  -0.8  766  328  -14.9    0.9     
06 21.02.18 260 (З) 4000 м  дымка{снег}  10/0 средняя 
[As trans]
-15.5 -17 88 -19  1022.2  -0.7  766  329  -17    0.5  38  равномерный
сухой снег
100% 
09 21.02.18 270 (З) 4000 м  слаб. ливневой снег  9/9 700 м кучево-дожд. 
[Cb cap]
-12.6 -14.3 87 -17  1021.4  -0.8  765  325           
12 21.02.18 240 (ЮЗ) 20000 м  {ливн. осадки}  ясно 
-10.8 -13.8 79 -14  1021.2  -0.2  765  322           
15 21.02.18 240 (ЮЗ) 20000 м    3/0 верхняя 
[Ci fib]
-10.7 -12.7 85 -14  1020.3  -0.8  765  322      0.2     
18 21.02.18 280 (З) 4000 м  слаб. снег  10/0 средняя 
[As op]
-8.7 -10.1 90 -12  1019.8  -0.5  764  319    -8.7  0.5     
21 21.02.18 280 (З) 4000 м  слаб. снег  10/0 средняя 
[As op]
-8.9 -10.1 91 -12  1019.7  0.1  764  319           
03 22.02.18 310 (СЗ) 10 км  в посл. час снег  10/10 300 м 
[St]
-10.5 -11.7 91 -14  1020.3  0.3  765  322  -10.7       
06 22.02.18 310 (СЗ) 4000 м  слаб. снег  9/9 300 м 
[St]
-10.9 -12.2 90 -15  1021.1  0.7  765  322  -11.6    42  равномерный
сухой снег
100% 
09 22.02.18 340 (С) 4000 м  снег  6/6 210 м средняя 
[Frnb|As op]
-11 -12.5 89 -14  1022.5  1.4  766  323           
21 22.02.18 040 (СВ) 20000 м    4/0 средняя 
[As trans]
-12.6 -13.9 90 -15  1027.6  1.3  770  327           
00 23.02.18 010 (С) 20000 м    6/0 средняя 
[As trans]
-12.7 -14.1 89 -16  1028.6  1.1  771  327           
03 23.02.18 020 (С) 20000 м    3/0 средняя 
[As trans]
-13.6 -15.4 86 -18  1029.6  772  329  -14.9    0.0     
06 23.02.18 010 (С) 4000 м  слаб. снег  9/0 средняя 
[As trans]
-13 -14.6 88 -16  1030.4  0.8  772  328  -14.9    0.0  46  равномерный
сухой снег
100% 
Время (UTC), дата Ветер
(°,м/с) 
Видим.   Явления Облачность Т
(°С)
Тd
(°С)
f(%) Тe
(°С)
Pmin
(гПа)
dP
(гПа)
Po
(мм)
O2
(г/м3)
Тmin Tmax R s Состояние
почвы

Для получения пояснительной информации подведите курсор к названию столбца.

ПОГОДА Кемь-Порт - архив

Всё, что Вы хотите узнать о погоде Кемь-Порт - удобно и подробно!

Выберите нужную дату (начиная с 1 января 2015* года) и нажмите кнопку "Найти".
Будут отображены архивные сводки погоды по пункту Кемь-Порт, начиная с указанной даты.


Отображать данные в формате CSV (для использования в таблицах Excel)


Внимание! Наш архив погоды предназначен исключительно для личного некоммерческого использования в познавательных целях. Если Вам необходимы официальные справки о состоянии погоды (для производственных, юридических, коммерческих и т.п. целей), обращайтесь в органы Росгидромета.

*Примечание: данная дата относится к архиву по метеостанциям СССР (Россия, СНГ, Балтия).
Архив по метеостанциям Зарубежной Европы и Азии (кроме Китая) хранится 10 дней, по другим регионам земного шара (Китай, Африка, Америка, Австралия, Океания) - 1 день.

Кемь-Порт - район местоположения метеостанции


Название, широта, долгота, высота метеостанции:
Кемь-Порт 64.98°ш. 34.80°д. 8 м над ур. моря [Российская Федерация]

Дополнительная информация

В oтличие oт бoльшинства пoгoдных сайтoв мы публикуем пoдрoбную метеoинфoрмацию в детальнoм прoфессиoнальнoм фoрмате.

Характеристики температуры и влажнoсти вoздуха измеряются на высoте 2 м в тени вдали oт зданий и деревьев.
Скoрoсть ветра измеряется на высoте 10 м (на урoвне рoста челoвека скoрoсть ветра ниже в 1.5-2 раза). Если метеoстанция нахoдится в гoрoде или в лесу, тo скoрoсть ветра занижена на 2-4 м/с пo сравнению с oткрытым местoм. Скoрoсть ветра над акватoриями крупных рек и oзёр, а также на вершинах хoлмoв на 2-5 м/с выше, чем в oбычных услoвиях.
Атмoсфернoе давление в разных тoчках местнoсти мoжет значительнo oтличаться oт давления на метеoстанции, в зависимoсти oт услoвий рельефа (при пoдъёме на 10 м давление пoнижается примернo на 1 мм рт.ст.).